Location: St. Louis
(38.6270°N, 90.1994°W)
Time: 12:18:09
(UTC-06:00)

A-11 Canister half - Pass Details

Date: 13 December 2021
Orbit: 1524 x 1684 km, 47.3° (Epoch: 25 January)

Event Time Altitude Azimuth Distance (km) Brightness Sun altitude
Rises 01:51:52 0° 280° (W) 4,932 - -60.7°
Reaches altitude 10° 01:55:11 10° 286° (WNW) 3,948 - -60.2°
Maximum altitude 02:05:04 52° 1° (N) 2,008 - -58.3°
Exits shadow 02:11:27 24° 67° (ENE) 2,972 10.7 -57.2°
Drops below altitude 10° 02:14:50 10° 77° (ENE) 3,900 11.5 -56.5°
Sets 02:18:06 0° 82° (E) 4,869 12.1 -55.9°
